Back to catalog

STARLINK-31850

AliveCommunicationsVLEO
NORAD 59903·PAYLOAD·🇺🇸 United States

Launched May 28, 2024 from Cape Canaveral Space Force Station

Loading…

Next Passes (next 24 hours)

TLE

FreshSource: CelesTrak SupGP

Epoch: Sep 14, 2026, 14:45 UTC

1 59903C 24100U   26257.61506944  .00045489  00000+0  16470-2 0  2576
2 59903  42.9998 138.1606 0001412 262.8043  99.7328 15.27567426    11

Track STARLINK-31850 in real time with AllMySat

Download on the App Store